User: anonymous   Login
Location: Unspecified
(0.0000°N, 0.0000°E)
Time: 16:29:31
(UTC+00:00)
Language:

ASTRO H - Orbit

View from above orbital plane
View from above orbital plane
View from above satellite
View from above satellite

Ground track
Ground track

The orbit data is extracted from the following two-line orbital elements,

1 41337U 16012A   19080.94516620 +.00000273 +00000-0 +15226-4 0  9991
2 41337 031.0065 004.9239 0012572 269.6298 090.2896 14.98558734169410
Epoch (UTC): 21 March 2019 22:41:02
Eccentricity: 0.0012572
inclination: 31.0065°
perigee height: 562 km
apogee height: 580 km
right ascension of ascending node: 4.9239°
argument of perigee: 269.6298°
revolutions per day: 14.98558734
mean anomaly at epoch: 90.2896°
orbit number at epoch: 16941

The dashed part of the orbit path shows where the satellite is in the earth's shadow,  

DLR